Regional Weather Roundup
Issued by NWS

Home | Current Version | Previous Version | Graphics & Text | Print | Product List | Glossary On
Versions: 1 2 3 4 5 6 7 8 9 10 11 12 13 14 15 16 17 18 19 20 21 22 23 24 25 26 27 28 29 30 31 32 33 34 35 36 37 38 39 40 41 42 43 44 45 46 47 48 49 50
000
ASUS43 KTOP 210108
RWRKS

WEATHER ROUNDUP FOR KANSAS
NATIONAL WEATHER SERVICE GOODLAND KS
800 PM CDT FRI OCT 20 2017

NOTE:  "FAIR" INDICATES FEW OR NO CLOUDS BELOW 12,000 FEET WITH NO
SIGNIFICANT WEATHER AND/OR OBSTRUCTIONS TO VISIBILITY.

KSZ001>006-013>018-027>032-041>047-210200-
NORTHWEST KANSAS

CITY           SKY/WX    TMP DP  RH WIND       PRES   REMARKS
GOODLAND       CLEAR     60  46  59 S9        29.53F
HAYS           CLEAR     70  58  65 S24G32    29.63R
HILL CITY      PTCLDY    72  57  59 S23G36    29.59S
RUSSELL        CLEAR     71  60  68 S28G35    29.64S
$$

KSZ061>065-074>080-084>089-210200-
SOUTHWEST KANSAS

CITY           SKY/WX    TMP DP  RH WIND       PRES   REMARKS
DODGE CITY     CLEAR     69  57  65 S24G35    29.66S
ELKHART          N/A     71  48  43 S14         N/A
GARDEN CITY    PTCLDY    71  54  54 S24G32    29.61R
GREAT BEND     CLEAR     70  58  65 S30G40    29.66F
LIBERAL        CLEAR     72  56  57 S25G33    29.66R
PRATT          CLEAR     69  58  66 S18G25    29.73S
$$

KSZ066>073-081>083-090>101-210200-
SOUTHEAST KANSAS

CITY           SKY/WX    TMP DP  RH WIND       PRES   REMARKS
CHANUTE        CLEAR     67  58  72 SE12      29.88S
COFFEYVILLE    PTCLDY    70  59  68 SE12      29.88S
HUTCHINSON     MOCLDY    71  58  63 S18G28    29.74S
MEDICINE LODGE   N/A     71  59  65 S13G21    29.73S
NEWTON         MOCLDY    71  55  56 S20G28    29.77S
PARSONS        CLOUDY    69  58  67 SE6       29.90R
WICHITA INTL   CLOUDY    72  58  61 S21G29    29.77R
WICHITA JABRA  CLOUDY    72  58  61 S17G26    29.78R
WICHITA MCCONL CLOUDY    73  56  56 S22G33    29.78S
WINFIELD       MOCLDY    73  60  63 S18G26    29.81F
$$

KSZ007>012-019>026-033>040-048>060-102>105-210200-
NORTHEAST KANSAS

CITY           SKY/WX    TMP DP  RH WIND       PRES   REMARKS
CONCORDIA      CLOUDY    71  58  63 S18G29    29.69S
EMPORIA        MOCLDY    68  59  73 S17G28    29.81F
LAWRENCE       CLEAR     68  57  68 SE10      29.85R
MANHATTAN      CLEAR     70  58  65 S16G28    29.75R
MARYSVILLE     MOCLDY    70  59  68 S18G25    29.75R
OLATHE IND     CLEAR     67  56  67 SE15      29.87S
OLATHE EXE     CLEAR     66  57  72 S14       29.88R
SALINA         CLEAR     73  59  61 S22G32    29.71S
TOPEKA BILLARD CLEAR     69  58  67 SE14      29.82R
TOPEKA FORBES  CLEAR     70  58  65 S17       29.82S
$$




USA.gov is the U.S. government's official web portal to all federal, state and local government web resources and services.